TimeEDT,TemperatureF,Dew PointF,Humidity,Sea Level PressureIn,VisibilityMPH,Wind Direction,Wind SpeedMPH,Gust SpeedMPH,PrecipitationIn,Events,Conditions,WindDirDegrees,DateUTC
12:53 AM,77.0,75.0,94,30.08,10.0,Calm,Calm,-,0.01,,Partly Cloudy,0,2012-10-03 04:53:00
1:53 AM,77.0,75.0,94,30.08,8.0,East,5.8,-,0.02,,Clear,100,2012-10-03 05:53:00
2:53 AM,77.0,75.9,96,30.06,8.0,ESE,4.6,-,0.02,,Partly Cloudy,120,2012-10-03 06:53:00
3:53 AM,75.9,75.0,97,30.07,9.0,Calm,Calm,-,N/A,,Clear,0,2012-10-03 07:53:00
4:53 AM,75.9,75.0,97,30.08,9.0,Calm,Calm,-,N/A,,Clear,0,2012-10-03 08:53:00
5:53 AM,75.9,75.0,97,30.09,9.0,Calm,Calm,-,N/A,,Mostly Cloudy,0,2012-10-03 09:53:00
6:16 AM,77.0,75.2,94,30.09,8.0,Calm,Calm,-,N/A,,Partly Cloudy,0,2012-10-03 10:16:00
6:53 AM,77.0,75.0,94,30.10,8.0,Calm,Calm,-,N/A,,Clear,0,2012-10-03 10:53:00
7:53 AM,78.1,75.9,93,30.11,7.0,Calm,Calm,-,N/A,,Clear,0,2012-10-03 11:53:00
8:53 AM,81.0,77.0,88,30.12,10.0,East,4.6,-,N/A,,Clear,90,2012-10-03 12:53:00
9:53 AM,84.0,78.1,82,30.13,10.0,ESE,6.9,-,N/A,,Scattered Clouds,110,2012-10-03 13:53:00
10:08 AM,84.2,77.0,79,30.13,9.0,SE,11.5,-,N/A,,Mostly Cloudy,140,2012-10-03 14:08:00
10:53 AM,86.0,77.0,74,30.13,9.0,ESE,9.2,-,N/A,,Mostly Cloudy,120,2012-10-03 14:53:00
11:21 AM,86.0,75.2,70,30.13,9.0,ESE,10.4,-,N/A,,Mostly Cloudy,120,2012-10-03 15:21:00
11:53 AM,87.1,75.9,69,30.13,10.0,ESE,13.8,-,N/A,,Scattered Clouds,120,2012-10-03 15:53:00
12:53 PM,89.1,75.9,65,30.13,10.0,SE,12.7,-,N/A,,Scattered Clouds,130,2012-10-03 16:53:00
1:53 PM,89.1,75.9,65,30.12,10.0,SE,12.7,-,N/A,,Clear,130,2012-10-03 17:53:00
2:53 PM,88.0,75.9,67,30.10,10.0,SE,13.8,-,N/A,,Partly Cloudy,130,2012-10-03 18:53:00
3:53 PM,89.1,73.9,61,30.09,10.0,SE,11.5,-,N/A,,Partly Cloudy,140,2012-10-03 19:53:00
4:53 PM,88.0,72.0,59,30.10,10.0,SE,11.5,-,N/A,,Partly Cloudy,130,2012-10-03 20:53:00
5:53 PM,87.1,73.0,63,30.11,10.0,SE,9.2,-,N/A,,Clear,130,2012-10-03 21:53:00
6:53 PM,84.0,73.9,72,30.10,10.0,East,6.9,-,N/A,,Clear,100,2012-10-03 22:53:00
7:53 PM,82.9,75.9,79,30.11,10.0,East,6.9,-,N/A,,Clear,100,2012-10-03 23:53:00
8:53 PM,82.9,77.0,82,30.14,10.0,East,4.6,-,N/A,,Clear,90,2012-10-04 00:53:00
9:53 PM,82.0,77.0,85,30.15,10.0,East,5.8,-,N/A,,Clear,80,2012-10-04 01:53:00
10:53 PM,82.0,77.0,85,30.18,10.0,East,5.8,-,N/A,,Partly Cloudy,100,2012-10-04 02:53:00
11:53 PM,82.0,77.0,85,30.18,10.0,East,6.9,-,N/A,,Clear,90,2012-10-04 03:53:00